Thunderstorms From: 25-05-2018 15:00 Until: 26-05-2018 15:00 warning for: Thunderstorms Level: Yellow info button

Although rather usual in this region, locally or potentially dangerous phenomena are expected. (such as local winds, summer thunderstorms, rising streams or high waves) Be aware and pay attention to the latest weather updates, especially if you carry out activities exposed to weather or close to a stream or shoreline. 


Meteo18 Weather Cam more information Meteo18 Weather Cam


warning for Thunderstorms more information blitzortung!


Rain radar more information rain snow radar


Visit our other weather sites:

Template documentation
and downloads

And another site



Weather Underground History page Text

Daily Summary for September 4, 2016 Units:  Metric    English   Both
« Previous Day
Next Day »
Daily Weekly Monthly Yearly Custom
  High: Low: Average:
Temperature: -17.8 °C -9.7 °C -6.9 °C
Dew Point: -17.8 °C -13.1 °C -10.4 °C
Humidity: Humidity % 56 % 66 %
Wind Speed: 0 km/h 0 km/h 4.7 km/h
Wind Gust: 0 km/h - -
Wind:- - WSW
Pressure: 0 hPa 34395 hPa -
Precipitation: 0 mm    
Historical Graphs
 
 
Tabular Data for September 4, 2016
Time Temperature Dew Point Pressure Wind Wind Speed Wind Gust Humidity Rainfall Rate (Hourly)
-17.8 °C -17.8 °C 0 hPa Calm     Humidity % 0 mm
00:02 -7.2 °C -12.2 °C 34418.7 hPa Calm     56 % 0 mm
00:07 -7.3 °C -12.3 °C 34418.7 hPa Calm     56 % 0 mm
00:12 -7.3 °C -12.2 °C 34418.7 hPa Calm     57 % 0 mm
00:17 -7.3 °C -12.1 °C 34418.7 hPa Calm     57 % 0 mm
00:22 -7.3 °C -12.2 °C 34418.7 hPa Calm     57 % 0 mm
00:27 -7.4 °C -12.2 °C 34418.7 hPa Calm     57 % 0 mm
00:32 -7.6 °C -12.2 °C 34418.7 hPa Calm     58 % 0 mm
00:37 -7.7 °C -12.2 °C 34418.7 hPa Calm     59 % 0 mm
00:42 -7.7 °C -12.2 °C 34418.7 hPa Calm     59 % 0 mm
00:47 -7.8 °C -12.5 °C 34418.7 hPa Calm     58 % 0 mm
00:52 -7.8 °C -12.5 °C 34418.7 hPa Calm     58 % 0 mm
00:57 -7.9 °C -12.4 °C 34418.7 hPa Calm     59 % 0 mm
01:02 -7.9 °C -12.6 °C 34418.7 hPa Calm     58 % 0 mm
01:07 -8.1 °C -12.6 °C 34418.7 hPa Calm     59 % 0 mm
01:12 -8.1 °C -12.6 °C 34418.7 hPa Calm     59 % 0 mm
01:17 -8.2 °C -12.6 °C 34418.7 hPa Calm     60 % 0 mm
01:22 -8.3 °C -12.6 °C 34418.7 hPa Calm     60 % 0 mm
01:27 -8.4 °C -12.6 °C 34418.7 hPa Calm     61 % 0 mm
01:32 -8.4 °C -12.4 °C 34418.7 hPa Calm     63 % 0 mm
01:37 -8.5 °C -12.6 °C 34418.7 hPa Calm     62 % 0 mm
01:42 -8.4 °C -12.4 °C 34418.7 hPa Calm     63 % 0 mm
01:47 -8.5 °C -12.6 °C 34418.7 hPa Calm     62 % 0 mm
01:57 -8.6 °C -12.6 °C 34418.7 hPa Calm     63 % 0 mm
02:02 -8.5 °C -12.4 °C 34418.7 hPa Calm     63 % 0 mm
02:07 -8.6 °C -12.5 °C 34418.7 hPa Calm     63 % 0 mm
02:12 -8.7 °C -12.7 °C 34418.7 hPa Calm     62 % 0 mm
02:17 -8.7 °C -12.6 °C 34418.7 hPa Calm     63 % 0 mm
02:22 -8.7 °C -12.7 °C 34418.7 hPa Calm     63 % 0 mm
02:27 -8.7 °C -12.5 °C 34418.7 hPa Calm     64 % 0 mm
02:32 -8.7 °C -12.5 °C 34418.7 hPa Calm     64 % 0 mm
02:37 -8.8 °C -12.4 °C 34418.7 hPa Calm     65 % 0 mm
02:42 -8.8 °C -12.6 °C 34418.7 hPa Calm     64 % 0 mm
02:47 -8.8 °C -12.7 °C 34418.7 hPa Calm     63 % 0 mm
02:52 -8.9 °C -12.7 °C 34418.7 hPa Calm     64 % 0 mm
02:57 -8.9 °C -12.7 °C 34418.7 hPa Calm     64 % 0 mm
03:02 -8.8 °C -12.6 °C 34418.7 hPa Calm     64 % 0 mm
03:07 -8.9 °C -12.7 °C 34418.7 hPa Calm     64 % 0 mm
03:12 -8.9 °C -12.6 °C 34418.7 hPa Calm     65 % 0 mm
03:17 -9 °C -12.7 °C 34418.7 hPa Calm     65 % 0 mm
03:22 -9 °C -12.7 °C 34418.7 hPa Calm     65 % 0 mm
03:27 -8.9 °C -12.6 °C 34418.7 hPa Calm     65 % 0 mm
03:32 -8.9 °C -12.6 °C 34418.7 hPa Calm     65 % 0 mm
03:37 -9.1 °C -12.7 °C 34418.7 hPa Calm     65 % 0 mm
03:42 -9.2 °C -12.8 °C 34405.1 hPa Calm     65 % 0 mm
03:47 -9.2 °C -12.7 °C 34405.1 hPa Calm     66 % 0 mm
03:52 -9.3 °C -12.9 °C 34405.1 hPa Calm     65 % 0 mm
03:57 -9.3 °C -12.8 °C 34405.1 hPa Calm     66 % 0 mm
04:02 -9.3 °C -12.8 °C 34405.1 hPa Calm     66 % 0 mm
04:07 -9.4 °C -12.8 °C 34405.1 hPa Calm     67 % 0 mm
04:12 -9.4 °C -12.8 °C 34405.1 hPa Calm     67 % 0 mm
04:17 -9.3 °C -12.7 °C 34395 hPa Calm     67 % 0 mm
04:22 -9.3 °C -12.8 °C 34395 hPa Calm     66 % 0 mm
04:32 -9.3 °C -12.8 °C 34405.1 hPa Calm     66 % 0 mm
04:37 -9.4 °C -12.9 °C 34395 hPa Calm     66 % 0 mm
04:42 -9.4 °C -12.9 °C 34405.1 hPa Calm     66 % 0 mm
04:47 -9.4 °C -12.8 °C 34405.1 hPa Calm     67 % 0 mm
04:52 -9.4 °C -12.7 °C 34405.1 hPa Calm     68 % 0 mm
04:57 -9.4 °C -12.7 °C 34405.1 hPa Calm     68 % 0 mm
05:02 -9.4 °C -12.8 °C 34405.1 hPa Calm     67 % 0 mm
05:07 -9.4 °C -12.7 °C 34405.1 hPa Calm     68 % 0 mm
05:12 -9.4 °C -12.8 °C 34405.1 hPa Calm     67 % 0 mm
05:17 -9.3 °C -12.7 °C 34405.1 hPa Calm     67 % 0 mm
05:22 -9.3 °C -12.7 °C 34405.1 hPa Calm     67 % 0 mm
05:27 -9.2 °C -12.6 °C 34405.1 hPa Calm     67 % 0 mm
05:32 -9.3 °C -12.7 °C 34405.1 hPa Calm     67 % 0 mm
05:37 -9.3 °C -12.7 °C 34405.1 hPa Calm     67 % 0 mm
05:42 -9.4 °C -12.8 °C 34395 hPa Calm     67 % 0 mm
05:52 -9.5 °C -12.8 °C 34405.1 hPa Calm     68 % 0 mm
05:57 -9.5 °C -12.8 °C 34405.1 hPa Calm     68 % 0 mm
06:02 -9.5 °C -12.8 °C 34405.1 hPa Calm     68 % 0 mm
06:07 -9.6 °C -12.7 °C 34405.1 hPa Calm     69 % 0 mm
06:12 -9.4 °C -12.8 °C 34405.1 hPa Calm     67 % 0 mm
06:17 -9.4 °C -12.9 °C 34405.1 hPa Calm   2.6 km/h 66 % 0 mm
06:22 -9.5 °C -13 °C 34405.1 hPa Calm   2.6 km/h 66 % 0 mm
06:27 -9.6 °C -12.9 °C 34395 hPa Calm   2.6 km/h 67 % 0 mm
06:32 -9.6 °C -13 °C 34405.1 hPa Calm     67 % 0 mm
06:37 -9.7 °C -13.1 °C 34395 hPa Calm     67 % 0 mm
06:42 -9.7 °C -12.9 °C 34395 hPa Calm     68 % 0 mm
06:47 -9.7 °C -12.9 °C 34395 hPa Calm     68 % 0 mm
06:52 -9.7 °C -12.9 °C 34405.1 hPa Calm     68 % 0 mm
07:02 -9.6 °C -12.9 °C 34405.1 hPa Calm     67 % 0 mm
07:07 -9.3 °C -12.8 °C 34405.1 hPa Calm     66 % 0 mm
07:12 -9.2 °C -12.8 °C 34405.1 hPa SE 2.6 km/h 5.1 km/h 65 % 0 mm
07:17 -9.2 °C -13.1 °C 34405.1 hPa South 5.1 km/h 7.7 km/h 63 % 0 mm
07:22 -9.1 °C -13 °C 34405.1 hPa SE 2.6 km/h 7.7 km/h 63 % 0 mm
07:32 -9.1 °C -13.1 °C 34405.1 hPa SSW 5.1 km/h 7.7 km/h 62 % 0 mm
07:37 -9.1 °C -13.1 °C 34405.1 hPa SSW 7.7 km/h 7.7 km/h 62 % 0 mm
07:42 -8.9 °C -13.1 °C 34418.7 hPa SW 5.1 km/h 12.9 km/h 61 % 0 mm
07:47 -8.8 °C -12.9 °C 34418.7 hPa Calm   12.9 km/h 61 % 0 mm
07:52 -8.8 °C -12.9 °C 34418.7 hPa SW 5.1 km/h 12.9 km/h 61 % 0 mm
07:57 -8.7 °C -12.9 °C 34428.8 hPa Calm   7.7 km/h 61 % 0 mm
08:02 -8.6 °C -12.8 °C 34418.7 hPa Calm   7.7 km/h 61 % 0 mm
08:07 -8.6 °C -12.9 °C 34428.8 hPa SW 5.1 km/h 7.7 km/h 60 % 0 mm
08:12 -8.4 °C -12.9 °C 34428.8 hPa SSW 5.1 km/h 7.7 km/h 59 % 0 mm
08:17 -8.4 °C -12.9 °C 34428.8 hPa SSW 7.7 km/h 10.3 km/h 59 % 0 mm
08:22 -8.4 °C -12.9 °C 34428.8 hPa Calm   10.3 km/h 59 % 0 mm
08:32 -8.3 °C -12.8 °C 34428.8 hPa SW 5.1 km/h 7.7 km/h 59 % 0 mm
08:42 -8.2 °C -12.7 °C 34428.8 hPa SSW 2.6 km/h 10.3 km/h 59 % 0 mm
08:47 -8.1 °C -12.7 °C 34428.8 hPa SW 5.1 km/h 10.3 km/h 58 % 0 mm
08:52 -8.1 °C -12.7 °C 34428.8 hPa SSW 5.1 km/h 10.3 km/h 58 % 0 mm
08:57 -8 °C -12.7 °C 34428.8 hPa SW 7.7 km/h 10.3 km/h 58 % 0 mm
09:02 -7.9 °C -12.6 °C 34428.8 hPa SW 5.1 km/h 12.9 km/h 58 % 0 mm
09:07 -7.9 °C -12.6 °C 34428.8 hPa SW 2.6 km/h 12.9 km/h 58 % 0 mm
09:12 -7.8 °C -12.3 °C 34428.8 hPa SSW 2.6 km/h 12.9 km/h 59 % 0 mm
09:17 -7.6 °C -12 °C 34428.8 hPa Calm   12.9 km/h 60 % 0 mm
09:22 -7.4 °C -11.8 °C 34428.8 hPa WNW 5.1 km/h 12.9 km/h 60 % 0 mm
09:27 -7.2 °C -11.6 °C 34428.8 hPa WSW 12.9 km/h 15.6 km/h 60 % 0 mm
09:32 -7.1 °C -11.6 °C 34428.8 hPa WSW 10.3 km/h 18.2 km/h 60 % 0 mm
09:37 -7 °C -11.4 °C 34428.8 hPa West 20.8 km/h 20.8 km/h 60 % 0 mm
09:42 -7 °C -11.6 °C 34428.8 hPa WSW 12.9 km/h 23.3 km/h 59 % 0 mm
09:47 -7 °C -11.4 °C 34442.4 hPa WSW 5.1 km/h 23.3 km/h 60 % 0 mm
09:52 -6.9 °C -11.2 °C 34442.4 hPa Calm   23.3 km/h 61 % 0 mm
09:57 -6.9 °C -11.1 °C 34442.4 hPa WSW 5.1 km/h 18.2 km/h 62 % 0 mm
10:02 -6.9 °C -10.9 °C 34442.4 hPa WSW 7.7 km/h 18.2 km/h 63 % 0 mm
10:07 -6.9 °C -10.8 °C 34442.4 hPa WNW 7.7 km/h 15.6 km/h 64 % 0 mm
10:12 -6.8 °C -10.6 °C 34452.6 hPa WNW 2.6 km/h 18.2 km/h 65 % 0 mm
10:17 -6.7 °C -10.5 °C 34452.6 hPa Calm   18.2 km/h 65 % 0 mm
10:22 -6.6 °C -10.3 °C 34452.6 hPa Calm   12.9 km/h 65 % 0 mm
10:27 -6.5 °C -10.3 °C 34452.6 hPa West 2.6 km/h 10.3 km/h 65 % 0 mm
10:37 -6.4 °C -10.3 °C 34452.6 hPa SW 2.6 km/h 7.7 km/h 64 % 0 mm
10:42 -6.4 °C -10.2 °C 34452.6 hPa SSW 7.7 km/h 7.7 km/h 65 % 0 mm
10:47 -6.3 °C -10.1 °C 34452.6 hPa SSW 7.7 km/h 10.3 km/h 65 % 0 mm
10:52 -6.3 °C -10.1 °C 34452.6 hPa South 5.1 km/h 10.3 km/h 65 % 0 mm
10:57 -6.3 °C -9.9 °C 34452.6 hPa SSW 2.6 km/h 10.3 km/h 66 % 0 mm
11:02 -6.2 °C -9.8 °C 34452.6 hPa SW 10.3 km/h 10.3 km/h 67 % 0 mm
11:07 -6.2 °C -9.6 °C 34452.6 hPa SW 2.6 km/h 12.9 km/h 68 % 0 mm
11:12 -6.2 °C -9.7 °C 34462.7 hPa SW 10.3 km/h 12.9 km/h 67 % 0 mm
11:22 -6.2 °C -9.7 °C 34462.7 hPa SSW 10.3 km/h 20.8 km/h 67 % 0 mm
11:27 -6.2 °C -9.7 °C 34462.7 hPa WSW 10.3 km/h 20.8 km/h 67 % 0 mm
11:32 -6.1 °C -9.7 °C 34452.6 hPa West 12.9 km/h 20.8 km/h 66 % 0 mm
11:37 -6.1 °C -9.7 °C 34452.6 hPa WSW 5.1 km/h 20.8 km/h 66 % 0 mm
11:42 -5.9 °C -9.6 °C 34452.6 hPa SW 10.3 km/h 23.3 km/h 66 % 0 mm
11:52 -5.8 °C -9.7 °C 34452.6 hPa SSE 10.3 km/h 18.2 km/h 65 % 0 mm
11:57 -5.8 °C -9.6 °C 34452.6 hPa SW 10.3 km/h 25.9 km/h 65 % 0 mm
12:02 -5.7 °C -9.4 °C 34452.6 hPa SW 12.9 km/h 25.9 km/h 66 % 0 mm
12:07 -5.6 °C -9.3 °C 34452.6 hPa WNW 7.7 km/h 25.9 km/h 66 % 0 mm
12:12 -5.4 °C -9.3 °C 34462.7 hPa SSE 10.3 km/h 23.3 km/h 65 % 0 mm
12:17 -5.4 °C -9.3 °C 34462.7 hPa WNW 2.6 km/h 23.3 km/h 64 % 0 mm
12:22 -5.4 °C -9.3 °C 34462.7 hPa SW 7.7 km/h 20.8 km/h 64 % 0 mm
12:27 -5.5 °C -9.6 °C 34462.7 hPa WSW 18.2 km/h 25.9 km/h 63 % 0 mm
12:32 -5.7 °C -9.6 °C 34462.7 hPa WSW 12.9 km/h 25.9 km/h 64 % 0 mm
12:42 -5.6 °C -9.5 °C 34462.7 hPa WSW 18.2 km/h 20.8 km/h 64 % 0 mm
12:47 -5.6 °C -9.6 °C 34462.7 hPa SW 5.1 km/h 20.8 km/h 64 % 0 mm
12:52 -5.6 °C -9.4 °C 34462.7 hPa West 15.6 km/h 20.8 km/h 65 % 0 mm
12:57 -5.5 °C -9.3 °C 34462.7 hPa WSW 18.2 km/h 28.5 km/h 65 % 0 mm
13:02 -5.4 °C -9.4 °C 34476.3 hPa South 5.1 km/h 28.5 km/h 64 % 0 mm
13:07 -5.4 °C -9.5 °C 34476.3 hPa WSW 15.6 km/h 28.5 km/h 63 % 0 mm
13:12 -5.4 °C -9.3 °C 34462.7 hPa WSW 10.3 km/h 25.9 km/h 64 % 0 mm
13:22 -5.4 °C -9.5 °C 34476.3 hPa SW 10.3 km/h 25.9 km/h 63 % 0 mm
13:27 -5.3 °C -9.3 °C 34476.3 hPa WNW 15.6 km/h 25.9 km/h 64 % 0 mm
13:32 -5.2 °C -9.2 °C 34476.3 hPa SW 12.9 km/h 25.9 km/h 64 % 0 mm
13:37 -5.2 °C -9 °C 34462.7 hPa West 20.8 km/h 23.3 km/h 65 % 0 mm
13:47 -5.2 °C -9 °C 34476.3 hPa West 10.3 km/h 33.6 km/h 65 % 0 mm
13:52 -5.2 °C -8.9 °C 34476.3 hPa West 7.7 km/h 33.6 km/h 66 % 0 mm
13:57 -5.2 °C -8.9 °C 34462.7 hPa West 18.2 km/h 28.5 km/h 66 % 0 mm
14:02 -5.2 °C -8.9 °C 34476.3 hPa WNW 12.9 km/h 28.5 km/h 66 % 0 mm
14:07 -5.2 °C -8.9 °C 34462.7 hPa West 7.7 km/h 28.5 km/h 66 % 0 mm
14:12 -5.2 °C -8.8 °C 34462.7 hPa WSW 7.7 km/h 23.3 km/h 67 % 0 mm
14:17 -5.2 °C -8.8 °C 34462.7 hPa WSW 15.6 km/h 23.3 km/h 67 % 0 mm
14:22 -5.2 °C -8.7 °C 34462.7 hPa West 7.7 km/h 18.2 km/h 67 % 0 mm
14:27 -5.2 °C -8.9 °C 34462.7 hPa WSW 7.7 km/h 23.3 km/h 66 % 0 mm
14:32 -5.1 °C -8.8 °C 34462.7 hPa West 12.9 km/h 23.3 km/h 66 % 0 mm
14:37 -5.1 °C -8.8 °C 34462.7 hPa WNW 12.9 km/h 23.3 km/h 66 % 0 mm
14:42 -5.1 °C -8.8 °C 34462.7 hPa WNW 12.9 km/h 23.3 km/h 66 % 0 mm
14:47 -5.1 °C -8.7 °C 34462.7 hPa WSW 20.8 km/h 28.5 km/h 67 % 0 mm
14:52 -4.9 °C -8.7 °C 34462.7 hPa SW 20.8 km/h 28.5 km/h 66 % 0 mm
14:57 -5 °C -8.7 °C 34462.7 hPa SW 10.3 km/h 31.1 km/h 66 % 0 mm
15:02 -4.9 °C -8.7 °C 34452.6 hPa WNW 12.9 km/h 31.1 km/h 66 % 0 mm
15:07 -4.9 °C -8.6 °C 34452.6 hPa West 7.7 km/h 31.1 km/h 66 % 0 mm
15:12 -4.9 °C -8.6 °C 34452.6 hPa SSW 7.7 km/h 25.9 km/h 66 % 0 mm
15:17 -4.9 °C -8.7 °C 34462.7 hPa WSW 7.7 km/h 23.3 km/h 65 % 0 mm
15:22 -4.9 °C -8.7 °C 34462.7 hPa SW 12.9 km/h 23.3 km/h 65 % 0 mm
15:32 -4.9 °C -8.6 °C 34462.7 hPa SSW 7.7 km/h 23.3 km/h 66 % 0 mm
15:37 -4.9 °C -8.6 °C 34462.7 hPa West 7.7 km/h 23.3 km/h 66 % 0 mm
15:42 -4.8 °C -8.7 °C 34462.7 hPa WNW 7.7 km/h 23.3 km/h 65 % 0 mm
15:47 -4.8 °C -8.7 °C 34462.7 hPa WNW 15.6 km/h 23.3 km/h 65 % 0 mm
15:52 -4.8 °C -8.5 °C 34462.7 hPa West 7.7 km/h 23.3 km/h 66 % 0 mm
15:57 -4.8 °C -8.5 °C 34462.7 hPa West 15.6 km/h 23.3 km/h 66 % 0 mm
16:02 -4.8 °C -8.6 °C 34462.7 hPa WSW 12.9 km/h 25.9 km/h 66 % 0 mm
16:07 -4.8 °C -8.5 °C 34462.7 hPa WNW 5.1 km/h 25.9 km/h 66 % 0 mm
16:12 -4.7 °C -8.4 °C 34476.3 hPa WNW 12.9 km/h 23.3 km/h 66 % 0 mm
16:17 -4.8 °C -8.5 °C 34476.3 hPa West 7.7 km/h 25.9 km/h 66 % 0 mm
16:22 -4.8 °C -8.5 °C 34486.4 hPa WNW 7.7 km/h 25.9 km/h 66 % 0 mm
16:27 -4.8 °C -8.5 °C 34486.4 hPa West 12.9 km/h 25.9 km/h 66 % 0 mm
16:32 -4.8 °C -8.5 °C 34476.3 hPa WSW 2.6 km/h 25.9 km/h 66 % 0 mm
16:37 -4.8 °C -8.4 °C 34476.3 hPa West 7.7 km/h 23.3 km/h 67 % 0 mm
16:42 -4.8 °C -8.4 °C 34476.3 hPa West 15.6 km/h 23.3 km/h 67 % 0 mm
16:47 -4.8 °C -8.4 °C 34476.3 hPa SW 5.1 km/h 25.9 km/h 67 % 0 mm
16:52 -4.8 °C -8.4 °C 34476.3 hPa NW 12.9 km/h 25.9 km/h 67 % 0 mm
16:57 -4.8 °C -8.4 °C 34476.3 hPa West 10.3 km/h 23.3 km/h 67 % 0 mm
17:02 -4.9 °C -8.3 °C 34476.3 hPa WSW 12.9 km/h 23.3 km/h 68 % 0 mm
17:07 -4.9 °C -8.4 °C 34462.7 hPa WSW 10.3 km/h 25.9 km/h 68 % 0 mm
17:12 -4.9 °C -8.4 °C 34462.7 hPa WSW 5.1 km/h 25.9 km/h 68 % 0 mm
17:17 -4.9 °C -8.4 °C 34476.3 hPa SW 7.7 km/h 25.9 km/h 68 % 0 mm
17:27 -5 °C -8.4 °C 34462.7 hPa SSW 5.1 km/h 28.5 km/h 68 % 0 mm
17:32 -5 °C -8.3 °C 34462.7 hPa WNW 10.3 km/h 28.5 km/h 69 % 0 mm
17:37 -4.9 °C -8.3 °C 34462.7 hPa WSW 5.1 km/h 28.5 km/h 69 % 0 mm
17:42 -5 °C -8.3 °C 34476.3 hPa WSW 5.1 km/h 12.9 km/h 69 % 0 mm
17:47 -4.9 °C -8.4 °C 34476.3 hPa NW 7.7 km/h 20.8 km/h 68 % 0 mm
17:52 -4.9 °C -8.4 °C 34476.3 hPa West 10.3 km/h 23.3 km/h 68 % 0 mm
17:57 -4.9 °C -8.4 °C 34486.4 hPa WNW 7.7 km/h 23.3 km/h 68 % 0 mm
18:02 -4.9 °C -8.3 °C 34486.4 hPa WNW 5.1 km/h 23.3 km/h 69 % 0 mm
18:12 -4.9 °C -8.3 °C 34486.4 hPa NW 7.7 km/h 23.3 km/h 69 % 0 mm
18:17 -4.9 °C -8.3 °C 34476.3 hPa Calm   18.2 km/h 69 % 0 mm
18:22 -5 °C -8.3 °C 34476.3 hPa NW 5.1 km/h 18.2 km/h 69 % 0 mm
18:32 -5.1 °C -8.4 °C 34476.3 hPa WSW 2.6 km/h 15.6 km/h 69 % 0 mm
18:42 -5.1 °C -8.4 °C 34476.3 hPa West 5.1 km/h 15.6 km/h 69 % 0 mm
18:47 -5.1 °C -8.4 °C 34476.3 hPa West 7.7 km/h 15.6 km/h 69 % 0 mm
18:52 -5.1 °C -8.4 °C 34486.4 hPa WNW 5.1 km/h 15.6 km/h 69 % 0 mm
18:57 -5.1 °C -8.3 °C 34476.3 hPa NW 5.1 km/h 10.3 km/h 70 % 0 mm
19:02 -5.1 °C -8.3 °C 34476.3 hPa West 7.7 km/h 10.3 km/h 70 % 0 mm
19:12 -5.1 °C -8.3 °C 34486.4 hPa WNW 2.6 km/h 10.3 km/h 70 % 0 mm
19:17 -5.1 °C -8.3 °C 34486.4 hPa WSW 2.6 km/h 15.6 km/h 70 % 0 mm
19:22 -5.1 °C -8.3 °C 34476.3 hPa WSW 2.6 km/h 15.6 km/h 70 % 0 mm
19:27 -5.1 °C -8.3 °C 34476.3 hPa WNW 5.1 km/h 15.6 km/h 70 % 0 mm
19:32 -5.2 °C -8.2 °C 34476.3 hPa West 5.1 km/h 7.7 km/h 71 % 0 mm
19:42 -5.2 °C -8.2 °C 34486.4 hPa WSW 5.1 km/h 7.7 km/h 71 % 0 mm
19:52 -5.2 °C -8.2 °C 34476.3 hPa SW 2.6 km/h 10.3 km/h 72 % 0 mm
19:57 -5.3 °C -8.3 °C 34476.3 hPa WSW 5.1 km/h 10.3 km/h 72 % 0 mm
20:02 -5.3 °C -8.3 °C 34462.7 hPa SW 5.1 km/h 10.3 km/h 72 % 0 mm
20:07 -5.3 °C -8.3 °C 34476.3 hPa SSW 7.7 km/h 12.9 km/h 72 % 0 mm
20:12 -5.4 °C -8.2 °C 34476.3 hPa SW 5.1 km/h 12.9 km/h 73 % 0 mm
20:17 -5.4 °C -8.2 °C 34486.4 hPa West 7.7 km/h 12.9 km/h 73 % 0 mm
20:22 -5.4 °C -8.3 °C 34476.3 hPa SSW 2.6 km/h 12.9 km/h 73 % 0 mm
20:27 -5.4 °C -8.3 °C 34486.4 hPa SW 5.1 km/h 12.9 km/h 73 % 0 mm
20:32 -5.4 °C -8.3 °C 34486.4 hPa WSW 2.6 km/h 10.3 km/h 73 % 0 mm
20:37 -5.4 °C -8.3 °C 34486.4 hPa SW 2.6 km/h 7.7 km/h 73 % 0 mm
20:42 -5.5 °C -8.2 °C 34486.4 hPa SW 5.1 km/h 7.7 km/h 74 % 0 mm
20:47 -5.5 °C -8.2 °C 34486.4 hPa SW 2.6 km/h 7.7 km/h 74 % 0 mm
20:52 -5.5 °C -8.2 °C 34486.4 hPa SW 5.1 km/h 7.7 km/h 74 % 0 mm
20:57 -5.5 °C -8.2 °C 34486.4 hPa SSW 5.1 km/h 7.7 km/h 74 % 0 mm
21:02 -5.6 °C -8.2 °C 34486.4 hPa WSW 10.3 km/h 10.3 km/h 74 % 0 mm
21:07 -5.6 °C -8.2 °C 34486.4 hPa WSW 5.1 km/h 12.9 km/h 74 % 0 mm
21:12 -5.6 °C -8.2 °C 34486.4 hPa SSW 5.1 km/h 12.9 km/h 74 % 0 mm
21:17 -5.6 °C -8.2 °C 34486.4 hPa SSW 5.1 km/h 12.9 km/h 74 % 0 mm
21:22 -5.6 °C -8.3 °C 34486.4 hPa SW 7.7 km/h 10.3 km/h 74 % 0 mm
21:27 -5.6 °C -8.3 °C 34496.6 hPa SW 7.7 km/h 10.3 km/h 74 % 0 mm
21:32 -5.6 °C -8.3 °C 34496.6 hPa SW 2.6 km/h 12.9 km/h 74 % 0 mm
21:37 -5.6 °C -8.3 °C 34496.6 hPa SW 7.7 km/h 12.9 km/h 74 % 0 mm
21:42 -5.6 °C -8.3 °C 34496.6 hPa WSW 5.1 km/h 12.9 km/h 74 % 0 mm
21:47 -5.6 °C -8.3 °C 34496.6 hPa SW 2.6 km/h 10.3 km/h 74 % 0 mm
21:52 -5.7 °C -8.2 °C 34496.6 hPa SSW 2.6 km/h 10.3 km/h 75 % 0 mm
21:57 -5.7 °C -8.2 °C 34496.6 hPa WSW 2.6 km/h 10.3 km/h 75 % 0 mm
22:02 -5.7 °C -8.3 °C 34496.6 hPa Calm   7.7 km/h 75 % 0 mm
22:07 -5.8 °C -8.3 °C 34496.6 hPa Calm   5.1 km/h 75 % 0 mm
22:12 -5.8 °C -8.4 °C 34496.6 hPa Calm   5.1 km/h 75 % 0 mm
22:17 -5.9 °C -8.3 °C 34496.6 hPa Calm   2.6 km/h 76 % 0 mm
22:22 -5.9 °C -8.4 °C 34496.6 hPa SSW 2.6 km/h 2.6 km/h 76 % 0 mm
22:27 -6.1 °C -8.5 °C 34496.6 hPa Calm   2.6 km/h 76 % 0 mm
22:32 -6.2 °C -8.6 °C 34496.6 hPa Calm   5.1 km/h 76 % 0 mm
22:37 -6.2 °C -8.6 °C 34496.6 hPa Calm   5.1 km/h 77 % 0 mm
22:42 -6.3 °C -8.5 °C 34496.6 hPa Calm   2.6 km/h 78 % 0 mm
22:47 -6.4 °C -8.6 °C 34496.6 hPa North 2.6 km/h   78 % 0 mm
22:52 -6.5 °C -8.6 °C 34496.6 hPa North 2.6 km/h 7.7 km/h 79 % 0 mm
22:57 -6.4 °C -8.4 °C 34496.6 hPa Calm   7.7 km/h 80 % 0 mm
23:02 -6.4 °C -8.6 °C 34496.6 hPa Calm   5.1 km/h 79 % 0 mm
23:07 -6.5 °C -8.6 °C 34496.6 hPa Calm   2.6 km/h 79 % 0 mm
23:17 -6.6 °C -8.7 °C 34496.6 hPa Calm     79 % 0 mm
23:27 -6.8 °C -8.8 °C 34496.6 hPa Calm     80 % 0 mm
23:32 -6.8 °C -8.7 °C 34496.6 hPa Calm     81 % 0 mm
23:37 -6.9 °C -8.8 °C 34496.6 hPa Calm     81 % 0 mm
23:47 -6.9 °C -8.6 °C 34496.6 hPa Calm     83 % 0 mm
23:52 -6.9 °C -8.7 °C 34496.6 hPa Calm     82 % 0 mm
23:57 -6.9 °C -8.7 °C 34496.6 hPa Calm     82 % 0 mm
Meteo18
Compliments of Weather Underground - 4 mb

Script developed by  Jim McMurry - jmcmurry@mwt.net Adapted for the template by  Wim van der Kuil - Leuven-Template.eu

You find our weather info also at:

European Weather Network

Weather Underground

Equipment we use:

Weather-station
Davis Vue

Weather-program
Meteobridge

Weather-server
Raspberry PI 2 B+

Provider
1 and 1

Davis Vue

Meteobridge

Raspberry PI 2 B+

1 and 1